This demonstration page uses our WeatherBlox Daily Observations layout. Learn more.

Left ArrowRight Arrow

39.29038, -76.61219

Hourly Observations for November 5, 2020

Temp ( °F °C ) Dew Point ( °F °C ) Humidity (%) Winds ( mph kmh ) Pressure ( in mb ) Visibility ( mi km ) Precip ( " mm )
12:54 am 00:54 Clear 46 7.8 43 6.1 89 89 Calm 30.44 1031 10 16 0.00 0.00
1:54 am 01:54 Clear 44 6.7 41 5 89 89 Calm 30.43 1031 10 16 0.00 0.00
2:54 am 02:54 Clear 42 5.6 40 4.4 92 92 Calm 30.42 1030 10 16 0.00 0.00
3:54 am 03:54 Mostly Clear 42 5.6 40 4.4 92 92 Calm 30.42 1030 10 16 0.00 0.00
4:54 am 04:54 Mostly Clear 39 3.9 37 2.8 93 93 Calm 30.43 1030 9 14 0.00 0.00
5:52 am 05:52 Mostly Clear with Mist and Fog 39 4 37 3 93 93 W 3 6 30.44 1031 1 2 0.00 0.00
5:54 am 05:54 Mostly Clear with Patchy Fog 40 4.4 38 3.3 93 93 Calm 30.43 1030 6 10 0.00 0.00
6:54 am 06:54 Partly Cloudy with Patchy Fog 40 4.4 39 3.9 97 97 Calm 30.43 1030 4 6 0.00 0.00
7:11 am 07:11 Partly Cloudy with Fog 40 4.4 38 3.3 93 93 Calm 30.44 1031 1 1 0.00 0.00
7:18 am 07:18 Partly Cloudy with Fog 40 4.4 38 3.3 93 93 WNW 3 6 30.44 1031 1 1 0.00 0.00
7:31 am 07:31 Partly Cloudy with Mist and Fog 41 5 40 4.4 96 96 Calm 30.45 1031 3 4 0.00 0.00
7:50 am 07:50 Partly Cloudy with Mist and Fog 43 6 43 6 100 100 Calm 30.45 1031 3 5 0.00 0.00
7:54 am 07:54 Partly Cloudy with Mist and Fog 44 6.7 43 6.1 96 96 Calm 30.44 1031 3 5 0.00 0.00
8:54 am 08:54 Partly Cloudy with Mist and Fog 50 10 47 8.3 89 89 Calm 30.43 1031 6 10 0.00 0.00
9:54 am 09:54 Partly Cloudy 60 15.6 44 6.7 56 56 SSW 6 9 30.42 1030 10 16 0.00 0.00
10:54 am 10:54 Mostly Cloudy 65 18.3 44 6.7 47 47 VRB 5 7 30.40 1030 10 16 0.00 0.00
11:54 am 11:54 Mostly Cloudy 69 20.6 39 3.9 33 33 SW 6 9 30.38 1029 10 16 0.00 0.00
12:54 pm 12:54 Mostly Cloudy 70 21.1 38 3.3 31 31 SW 9 15 30.35 1028 10 16 0.00 0.00
1:54 pm 13:54 Mostly Cloudy 70 21.1 36 2.2 29 29 S 8 13 30.33 1027 10 16 0.00 0.00
2:37 pm 14:37 Mostly Cloudy 70 21.1 35 1.7 28 28 SSW 9 15 30.33 1027 10 16 0.00 0.00
2:54 pm 14:54 Mostly Cloudy 70 21.1 35 1.7 28 28 SSW 5 7 30.32 1027 10 16 0.00 0.00
3:54 pm 15:54 Mostly Cloudy 66 18.9 46 7.8 49 49 SE 7 11 30.33 1027 10 16 0.00 0.00
4:54 pm 16:54 Sunny 63 17.2 47 8.3 56 56 SE 5 7 30.33 1027 10 16 0.00 0.00
5:54 pm 17:54 Mostly Cloudy 60 15.6 48 8.9 65 65 SSE 5 7 30.34 1027 10 16 0.00 0.00
6:54 pm 18:54 Partly Cloudy 59 15 50 10 72 72 SSE 3 6 30.34 1027 10 16 0.00 0.00
7:54 pm 19:54 Partly Cloudy 56 13.3 49 9.4 77 77 Calm 30.34 1027 10 16 0.00 0.00
8:54 pm 20:54 Partly Cloudy 51 10.6 47 8.3 86 86 Calm 30.34 1027 10 16 0.00 0.00
9:54 pm 21:54 Mostly Cloudy 52 11.1 48 8.9 86 86 Calm 30.34 1027 10 16 0.00 0.00
10:54 pm 22:54 Cloudy 49 9.4 45 7.2 86 86 Calm 30.33 1027 10 16 0.00 0.00
11:54 pm 23:54 Mostly Cloudy 51 10.6 47 8.3 86 86 Calm 30.32 1027 10 16 0.00 0.00

Powered by AerisWeather